Regional Weather Roundup
Issued by NWS

Home | Current Version | Previous Version | Graphics & Text | Print | Product List | Glossary On
Versions: 1 2 3 4 5 6 7 8 9 10 11 12 13 14 15 16 17 18 19 20 21 22 23 24 25 26 27 28 29 30 31 32 33 34 35 36 37 38 39 40 41 42 43 44 45 46 47 48 49 50
000
ASUS43 KDMX 010607
RWRIA

WEATHER ROUNDUP FOR IOWA
NATIONAL WEATHER SERVICE DES MOINES IA
1200 AM CST SUN FEB 01 2015

NOTE: "FAIR" INDICATES FEW OR NO CLOUDS BELOW 12,000 FEET WITH NO
SIGNIFICANT WEATHER AND/OR OBSTRUCTIONS TO VISIBILITY.

* - THESE STATIONS ARE NOT NWS STATIONS...THUS NOT UNDER NWS
QUALITY CONTROL.  THEY ALSO DO NOT REPORT WEATHER SUCH
AS PRECIPITATION OR FOG.

IAZ001>003-012>014-020>022-031>034-043>046-010700-
   NORTHWEST IOWA

CITY           SKY/WX    TMP DP  RH WIND       PRES   REMARKS
CARROLL *      LGT SNOW  32  32 100 E12       29.90F WCI  23
CHEROKEE *     LGT SNOW  27  27  97 NE14G20   29.96S WCI  16
DENISON *      LGT SNOW  32  32 100 E7        29.88F VSB 1   WCI  26
LE MARS *      LGT SNOW  27  27 100 NE20G26   29.97S WCI  13
ORANGE CITY *  LGT SNOW  27  23  86 NE15G25   29.97S VSB 1   WCI  15
SHELDON *      MIX PCPN  25  25 100 NE24G30   29.98F WCI   9
SIOUX CITY     LGT SNOW  30  28  92 NE15G29   29.93S VSB 1   WCI  19
6HR MIN TEMP:  30; 6HR MAX TEMP:  34; 6HR PCP:  0.16;

SPENCER        LGT SNOW  25  22  88 NE22      29.99F FOG     WCI  10
6HR MIN TEMP:  25; 6HR MAX TEMP:  29; 6HR PCP: TRACE;

STORM LAKE *   LGT SNOW  28  27  93 NE24G30   29.93F WCI  14
$$

IAZ055>058-069>071-079>083-090>094-010700-
   SOUTHWEST IOWA

CITY           SKY/WX    TMP DP  RH WIND       PRES   REMARKS
ATLANTIC *     LGT SNOW  32  32 100 NE6       29.88F WCI  26
AUDUBON *      LGT SNOW  32  30  93 E6        29.90F WCI  26
CLARINDA *     LGT SNOW  34  34 100 SE6       29.88F WCI  29
COUNCIL BLFS * LGT SNOW  32  32 100 E8        29.85F VSB 1   WCI  25
CRESTON *      LGT SNOW  32  32 100 SE9       29.87F VSB 1   WCI  24
HARLAN  *      LGT SNOW  32  32 100 E6        29.92F VSB 1   WCI  26
LAMONI         LGT SNOW  32  32 100 SE12      29.88F VSB 1   WCI  23
6HR MIN TEMP:  32; 6HR MAX TEMP:  33; 6HR PCP:  0.44;

RED OAK *      LGT SNOW  32  32 100 E3        29.87F
SHENANDOAH *   LGT SNOW  34  34 100 SE10      29.86F WCI  26
$$

IAZ047>049-059>061-072>074-084-010700-
   CENTRAL IOWA

CITY           SKY/WX    TMP DP  RH WIND       PRES   REMARKS
AMES           LGT SNOW  32  31  96 E7        29.94F VSB 3/4 WCI  26
6HR MIN TEMP:  32; 6HR MAX TEMP:  32; 6HR PCP:  0.47;

ANKENY *       LGT SNOW  32  32 100 E14G20    29.94F VSB 1   WCI  22
CHARITON *     LGT SNOW  34  32  93 SE12      29.90F WCI  25
DES MOINES     LGT SNOW  33  31  92 E7        29.93F VSB 3/4 WCI  27
6HR MIN TEMP:  33; 6HR MAX TEMP:  35; 6HR PCP:  0.51;

GRINNELL*      LGT SNOW  32  32 100 E7        29.94F VSB 3/4 WCI  26
KNOXVILLE *    LGT SNOW  32  32 100 SE10      29.91F WCI  24
MARSHALLTOWN   LGT SNOW  32  32 100 E12       29.95F VSB 3/4 WCI  23
6HR MIN TEMP:  32; 6HR MAX TEMP:  33; 6HR PCP:  0.44;

PELLA *        HVY RAIN  33  32  99 SE6       29.95F WCI  27
PERRY *        LGT SNOW  32  32 100 E8        29.92F WCI  25
$$

IAZ004>006-015-016-023>025-035-036-010700-
   NORTH CENTRAL IOWA

CITY           SKY/WX    TMP DP  RH WIND       PRES   REMARKS
ALGONA *       LGT SNOW  27  27 100 NE21      30.00S VSB 1   WCI  13
CLARION *      LGT SNOW  28  28 100 E21       29.98S WCI  15
ESTHERVILLE    LGT SNOW  23  22  96 NE23      30.02S VSB 3/4 WCI   7
6HR MIN TEMP:  23; 6HR MAX TEMP:  27; 6HR PCP:  0.02;

FORT DODGE *   CLOUDY    28  27  93 CALM      29.95F
MASON CITY     LGT SNOW  26  24  92 NE18      30.03S VSB 3/4 WCI  13
6HR MIN TEMP:  26; 6HR MAX TEMP:  30; 6HR PCP:  0.08;

FOREST CITY *  LGT SNOW  27  25  93 NE13G20   30.02S WCI  16
IOWA FALLS *   LGT SNOW  30  30 100 NE12      29.97F VSB 1   WCI  21
$$

IAZ007>011-017>019-026>030-037>042-050>054-066-010700-
   NORTHEAST IOWA

CITY           SKY/WX    TMP DP  RH WIND       PRES   REMARKS
CEDAR RAPIDS   LGT SNOW  32  32 100 E9        29.98F VSB 3/4 WCI  24
6HR MIN TEMP:  32; 6HR MAX TEMP:  36; 6HR PCP:  0.29;

CHARLES CITY * LGT SNOW  27  27 100 E18       30.03F WCI  13
CLINTON *      CLOUDY    34  30  86 E8        30.09F WCI  27
DECORAH *      LGT SNOW  27  25  93 E13G21    30.05F WCI  16
DUBUQUE        LGT SNOW  29  28  96 E12       30.05F VSB 3/4 WCI  19
6HR MIN TEMP:  29; 6HR MAX TEMP:  32; 6HR PCP:  0.32;

MONTICELLO *   LGT SNOW  32  32 100 E8        30.03F WCI  25
OELWEIN *      LGT SNOW  28  28 100 E16       30.01F VSB 3/4 WCI  17
WATERLOO       LGT SNOW  30  29  96 E17       30.00F VSB 1   WCI  18
6HR MIN TEMP:  30; 6HR MAX TEMP:  32; 6HR PCP:  0.29;

$$

IAZ064-065-067-068-078-010700-
   EAST CENTRAL IOWA

CITY           SKY/WX    TMP DP  RH WIND       PRES   REMARKS
DAVENPORT      LGT SNOW  32  30  92 E8        30.05F FOG     WCI  25
6HR MIN TEMP:  32; 6HR MAX TEMP:  33; 6HR PCP:  0.24;

IOWA CITY      LGT SNOW  33  32  96 E8        30.01F VSB 1   WCI  26
6HR MIN TEMP:  32; 6HR MAX TEMP:  35; 6HR PCP:  0.29;

MT. PLEASANT * LGT SNOW  32  32 100 SE12      30.00F WCI  23
MUSCATINE *    LGT SNOW  34  32  93 SE10      30.03F WCI  26
QUAD CITIES    LGT SNOW  32  30  92 E7        30.05F VSB 1   WCI  26
6HR MIN TEMP:  32; 6HR MAX TEMP:  34; 6HR PCP:  0.27;

$$

IAZ062-063-075>077-085>089-095>099-010700-
   SOUTHEAST IOWA

CITY           SKY/WX    TMP DP  RH WIND       PRES   REMARKS
BURLINGTON     LGT SNOW  33  32  96 SE10      30.02F VSB 3/4 WCI  25
6HR MIN TEMP:  33; 6HR MAX TEMP:  35; 6HR PCP:  0.30;

FAIRFIELD *    LGT SNOW  32  32 100 SE12      29.96F WCI  23
FORT MADISON * SNOW      32  32 100 SE9       30.01F VSB 1/2 WCI  24
KEOKUK *       LGT SNOW  34  34 100 SE10      29.99F WCI  26
OSKALOOSA *    LGT SNOW  32  32  99 SE12      29.94F WCI  23
CENTERVILLE *  LGT SNOW  32  32 100 SE8       29.93F WCI  25
OTTUMWA        LGT SNOW  33  33 100 SE13      29.94F FOG     WCI  24
6HR MIN TEMP:  32; 6HR MAX TEMP:  36; 6HR PCP:  0.38;

WASHINGTON *   LGT SNOW  34  34 100 SE14      29.98F WCI  24
$$

ABBREVIATIONS USED IN REMARKS
   TC - TEMPERATURES IN CELSIUS
  WCI - WIND CHILL INDEX
   HX - HEAT INDEX
  VSB - VISIBILITY
$$




USA.gov is the U.S. government's official web portal to all federal, state and local government web resources and services.